CES7630 ZGZJ-ZSNJ

Flight info

Callsign CES7630
Flight time N/A
Altitude 33100
Route GYA DCT POU DCT SHL DCT LMN DCT PLT DCT RUNEK DCT NCH DCT HFE
Aircraft MD11/H-SDE1E2E3FGHIJ2J3J4J5M1RWXY/LB1D1

Departure

Time 2026-05-05 11:40
Airport Zhanjiang Wuchuan International Airport (ZGZJ)

Arrival

Time N/A
Airport Nanjing Lukou International Airport (ZSNJ)
Time Latitude Longitude Altitude Speed Heading
2026-05-05 11:29 21.48258 110.58681 89 ft 0 kts 216°
2026-05-05 11:31 21.48261 110.58682 84 ft 3 kts 216°
2026-05-05 11:31 21.48282 110.58699 84 ft 4 kts 215°
2026-05-05 11:32 21.48304 110.58716 89 ft 4 kts 215°
2026-05-05 11:32 21.48325 110.58730 84 ft 2 kts 227°
2026-05-05 11:32 21.48334 110.58738 89 ft 4 kts 268°
2026-05-05 11:32 21.48331 110.58753 88 ft 4 kts 267°
2026-05-05 11:33 21.48334 110.58776 89 ft 4 kts 271°
2026-05-05 11:33 21.48331 110.58798 89 ft 4 kts 314°
2026-05-05 11:33 21.48312 110.58810 89 ft 4 kts 344°
2026-05-05 11:33 21.48289 110.58819 89 ft 2 kts 323°
2026-05-05 11:34 21.48288 110.58820 88 ft 1 kts 322°
2026-05-05 11:35 21.48289 110.58819 84 ft 0 kts 322°
2026-05-05 11:35 21.48293 110.58817 89 ft 1 kts 331°
2026-05-05 11:36 21.48304 110.58815 88 ft 2 kts 354°
2026-05-05 11:36 21.48312 110.58820 84 ft 1 kts 30°
2026-05-05 11:36 21.48322 110.58838 88 ft 7 kts 63°
2026-05-05 11:36 21.48349 110.58913 87 ft 15 kts 69°
2026-05-05 11:37 21.48393 110.59016 86 ft 15 kts 59°
2026-05-05 11:37 21.48434 110.59051 85 ft 4 kts
2026-05-05 11:37 21.48469 110.59042 88 ft 7 kts 339°
2026-05-05 11:37 21.48531 110.59032 88 ft 11 kts 18°
2026-05-05 11:38 21.48612 110.59038 86 ft 13 kts 336°
2026-05-05 11:38 21.48717 110.58971 88 ft 22 kts 329°
2026-05-05 11:38 21.48875 110.58874 87 ft 30 kts 330°
2026-05-05 11:38 21.49038 110.58773 87 ft 25 kts 329°
2026-05-05 11:39 21.49190 110.58678 89 ft 26 kts 330°
2026-05-05 11:39 21.49324 110.58595 87 ft 13 kts 330°
2026-05-05 11:39 21.49370 110.58578 87 ft 1 kts 358°
2026-05-05 11:39 21.49373 110.58581 85 ft 1 kts 18°
2026-05-05 11:40 21.49385 110.58598 89 ft 5 kts 55°
2026-05-05 11:40 21.49415 110.58659 89 ft 15 kts 64°
2026-05-05 11:40 21.49414 110.58725 87 ft 2 kts 132°
2026-05-05 11:40 21.49272 110.58820 86 ft 76 kts 150°
2026-05-05 11:41 21.48493 110.59310 194 ft 170 kts 148°
2026-05-05 11:41 21.47492 110.59935 1601 ft 158 kts 147°
2026-05-05 11:41 21.46575 110.60502 3251 ft 150 kts 145°
2026-05-05 11:41 21.45578 110.61136 4144 ft 191 kts 145°
2026-05-05 11:42 21.44301 110.61951 4512 ft 226 kts 146°
2026-05-05 11:42 21.42928 110.62810 5269 ft 230 kts 146°
2026-05-05 11:42 21.41542 110.63671 6182 ft 231 kts 145°
2026-05-05 11:42 21.40126 110.64553 6786 ft 240 kts 145°
2026-05-05 11:43 21.38696 110.65443 7149 ft 236 kts 145°
2026-05-05 11:43 21.37256 110.66344 7272 ft 248 kts 151°
2026-05-05 11:43 21.35649 110.67154 7657 ft 261 kts 167°
2026-05-05 11:43 21.33843 110.67294 7871 ft 263 kts 190°
2026-05-05 11:44 21.32064 110.66903 7898 ft 260 kts 197°
2026-05-05 11:44 21.30322 110.66391 7903 ft 260 kts 198°
2026-05-05 11:44 21.28579 110.65863 7902 ft 260 kts 198°
2026-05-05 11:44 21.26839 110.65339 7901 ft 260 kts 198°
2026-05-05 11:45 21.25977 110.65081 7901 ft 260 kts 198°
2026-05-05 11:45 21.24298 110.64582 7909 ft 260 kts 198°
2026-05-05 11:45 21.22553 110.64066 7905 ft 260 kts 198°
2026-05-05 11:45 21.20804 110.63551 7907 ft 261 kts 197°
2026-05-05 11:46 21.19051 110.63038 7904 ft 261 kts 197°
2026-05-05 11:46 21.17299 110.62529 7903 ft 261 kts 198°
2026-05-05 11:46 21.15549 110.62020 7900 ft 261 kts 198°
2026-05-05 11:46 21.13795 110.61510 7899 ft 261 kts 197°
2026-05-05 11:47 21.12046 110.61002 7908 ft 261 kts 198°
2026-05-05 11:47 21.10287 110.60522 7899 ft 261 kts 193°
2026-05-05 11:47 21.08432 110.60523 7919 ft 282 kts 168°
2026-05-05 11:47 21.06723 110.61594 8481 ft 293 kts 135°
2026-05-05 11:48 21.05066 110.65630 10239 ft 307 kts 104°
2026-05-05 11:48 21.04531 110.67999 10471 ft 348 kts 103°
2026-05-05 11:48 21.03947 110.70649 10791 ft 377 kts 104°
2026-05-05 11:49 21.03313 110.73451 11303 ft 403 kts 104°
2026-05-05 11:49 21.02602 110.76486 11518 ft 435 kts 104°
2026-05-05 11:49 21.01838 110.79654 12524 ft 444 kts 105°
2026-05-05 11:49 21.01050 110.82875 13581 ft 452 kts 105°
2026-05-05 11:50 21.00242 110.86146 14476 ft 460 kts 105°
2026-05-05 11:50 20.99414 110.89481 15311 ft 468 kts 105°
2026-05-05 11:50 20.98570 110.92869 16130 ft 475 kts 105°
2026-05-05 11:50 20.97711 110.96317 16928 ft 483 kts 105°
2026-05-05 11:51 20.96839 110.99815 17717 ft 490 kts 105°
2026-05-05 11:51 20.96011 111.03133 18422 ft 497 kts 105°
2026-05-05 11:51 20.95117 111.06725 19140 ft 502 kts 105°
2026-05-05 11:51 20.94217 111.10357 19866 ft 508 kts 105°
2026-05-05 11:52 20.93312 111.14027 20585 ft 513 kts 105°
2026-05-05 11:52 20.92400 111.17729 21306 ft 518 kts 105°
2026-05-05 11:52 20.91480 111.21471 22025 ft 523 kts 105°
2026-05-05 11:52 20.90547 111.25256 22735 ft 529 kts 105°
2026-05-05 11:53 20.89606 111.29076 23409 ft 534 kts 105°
2026-05-05 11:53 20.88751 111.32963 23945 ft 540 kts 100°
2026-05-05 11:53 20.88310 111.36961 24463 ft 544 kts 91°
2026-05-05 11:53 20.88435 111.41011 24924 ft 548 kts 82°
2026-05-05 11:54 20.89101 111.45029 25342 ft 550 kts 74°
2026-05-05 11:54 20.90259 111.48934 25720 ft 552 kts 66°
2026-05-05 11:54 20.91864 111.52652 26144 ft 550 kts 59°
2026-05-05 11:54 20.93867 111.56121 26618 ft 546 kts 51°
2026-05-05 11:55 20.96226 111.59286 27105 ft 542 kts 44°
2026-05-05 11:55 20.98901 111.62100 27588 ft 537 kts 37°
2026-05-05 11:55 21.01842 111.64521 28103 ft 531 kts 29°
2026-05-05 11:55 21.05006 111.66517 28596 ft 525 kts 22°
2026-05-05 11:56 21.08328 111.68057 29091 ft 518 kts 14°
2026-05-05 11:56 21.11764 111.69124 29589 ft 510 kts
2026-05-05 11:56 21.15243 111.69731 30079 ft 504 kts
2026-05-05 11:56 21.18723 111.70068 30488 ft 501 kts 359°
2026-05-05 11:57 21.22192 111.70297 30902 ft 498 kts 358°
2026-05-05 11:57 21.25650 111.70484 31311 ft 497 kts 357°
2026-05-05 11:57 21.29102 111.70737 31682 ft 498 kts
2026-05-05 11:57 21.32540 111.71325 32061 ft 503 kts
2026-05-05 11:58 21.35925 111.72299 32420 ft 506 kts 12°
2026-05-05 11:58 21.39247 111.73557 32791 ft 507 kts 15°
2026-05-05 11:58 21.42531 111.74976 32988 ft 509 kts 17°
2026-05-05 11:58 21.45785 111.76462 33035 ft 508 kts 18°
2026-05-05 11:59 21.52267 111.79453 33060 ft 506 kts 17°
2026-05-05 11:59 21.58754 111.82384 33059 ft 506 kts 17°
2026-05-05 12:00 21.65252 111.85282 33067 ft 505 kts 17°
2026-05-05 12:00 21.71730 111.88168 33063 ft 504 kts 17°
2026-05-05 12:01 21.78201 111.91059 33065 ft 504 kts 17°
2026-05-05 12:01 21.84637 111.93942 33066 ft 504 kts 17°
2026-05-05 12:02 21.91113 111.96841 33079 ft 504 kts 17°
2026-05-05 12:02 21.97587 111.99742 33071 ft 504 kts 17°
2026-05-05 12:03 22.04065 112.02646 33070 ft 504 kts 17°
2026-05-05 12:03 22.10545 112.05554 33070 ft 504 kts 17°
2026-05-05 12:04 22.17019 112.08462 33073 ft 504 kts 17°
2026-05-05 12:04 22.23485 112.11370 33080 ft 502 kts 17°
2026-05-05 12:05 22.29916 112.14267 33078 ft 501 kts 16°
2026-05-05 12:05 22.36361 112.17168 33078 ft 502 kts 16°
2026-05-05 12:06 22.42821 112.20081 33077 ft 504 kts 16°
2026-05-05 12:06 22.49283 112.22999 33084 ft 503 kts 16°
2026-05-05 12:07 22.55721 112.25916 33076 ft 501 kts 16°
2026-05-05 12:07 22.62146 112.28829 33077 ft 501 kts 16°
2026-05-05 12:08 22.68579 112.31743 33078 ft 502 kts 16°
2026-05-05 12:08 22.75014 112.34660 33107 ft 501 kts 16°
2026-05-05 12:09 22.81448 112.37580 33082 ft 501 kts 16°
2026-05-05 12:09 22.87870 112.40497 33075 ft 500 kts 16°
2026-05-05 12:10 22.94251 112.43403 33072 ft 501 kts 17°
2026-05-05 12:10 23.00445 112.47109 33078 ft 514 kts 30°
2026-05-05 12:11 23.05685 112.52547 33087 ft 529 kts 46°
2026-05-05 12:11 23.09565 112.59351 33072 ft 541 kts 61°
2026-05-05 12:12 23.11835 112.67202 33074 ft 550 kts 76°
2026-05-05 12:12 23.12279 112.75527 33077 ft 556 kts 92°
2026-05-05 12:13 23.10842 112.83800 33082 ft 560 kts 107°
2026-05-05 12:13 23.08068 112.91708 33073 ft 561 kts 113°
2026-05-05 12:14 23.05015 112.99507 33065 ft 561 kts 111°
2026-05-05 12:14 23.03219 113.06254 33073 ft 560 kts 99°
2026-05-05 12:15 23.02199 113.16049 33067 ft 558 kts 91°
2026-05-05 12:15 23.02356 113.23037 33074 ft 556 kts 82°
2026-05-05 12:16 23.03519 113.32747 33071 ft 555 kts 79°
2026-05-05 12:16 23.04383 113.39644 33080 ft 555 kts 79°
2026-05-05 12:17 23.05314 113.47974 33072 ft 557 kts 81°
2026-05-05 12:17 23.06187 113.56336 33065 ft 558 kts 81°
2026-05-05 12:18 23.07051 113.64695 33065 ft 557 kts 81°
2026-05-05 12:18 23.07919 113.73061 33065 ft 557 kts 81°
2026-05-05 12:19 23.09154 113.81344 33078 ft 553 kts 71°
2026-05-05 12:19 23.12014 113.89005 33087 ft 543 kts 56°
2026-05-05 12:20 23.16408 113.95515 33083 ft 529 kts 40°
2026-05-05 12:20 23.22027 114.00469 33081 ft 514 kts 25°
2026-05-05 12:21 23.28401 114.03735 33076 ft 503 kts 15°
2026-05-05 12:21 23.34732 114.07156 33093 ft 515 kts 25°
2026-05-05 12:22 23.40588 114.11651 33088 ft 521 kts 32°
2026-05-05 12:22 23.46247 114.16621 33092 ft 523 kts 33°
2026-05-05 12:23 23.51883 114.21617 33093 ft 523 kts 32°
2026-05-05 12:23 23.57554 114.26575 33096 ft 522 kts 32°
2026-05-05 12:24 23.63288 114.31408 33117 ft 517 kts 27°
2026-05-05 12:24 23.69604 114.34842 33096 ft 499 kts 12°
2026-05-05 12:25 23.76290 114.36337 33104 ft 486 kts 360°
2026-05-05 12:25 23.83026 114.37239 33102 ft 490 kts
2026-05-05 12:26 23.89749 114.38626 33103 ft 493 kts
2026-05-05 12:26 23.96450 114.40301 33110 ft 495 kts
2026-05-05 12:27 24.03154 114.42031 33107 ft 495 kts
2026-05-05 12:27 24.09861 114.43749 33104 ft 495 kts
2026-05-05 12:28 24.16573 114.45457 33106 ft 495 kts
2026-05-05 12:28 24.23284 114.47162 33116 ft 494 kts
2026-05-05 12:29 24.29981 114.48865 33115 ft 494 kts
2026-05-05 12:29 24.36674 114.50571 33115 ft 494 kts
2026-05-05 12:30 24.43373 114.52281 33119 ft 494 kts
2026-05-05 12:30 24.50069 114.53995 33126 ft 494 kts
2026-05-05 12:31 24.56750 114.55708 33113 ft 492 kts
2026-05-05 12:31 24.63431 114.57419 33117 ft 494 kts
2026-05-05 12:32 24.70122 114.59133 33114 ft 493 kts
2026-05-05 12:32 24.76812 114.60850 33129 ft 493 kts
2026-05-05 12:33 24.83446 114.62555 33116 ft 492 kts
2026-05-05 12:33 24.90117 114.64270 33104 ft 492 kts
2026-05-05 12:34 24.96787 114.65985 33106 ft 493 kts
2026-05-05 12:34 25.03469 114.67706 33116 ft 493 kts
2026-05-05 12:35 25.10148 114.69430 33104 ft 493 kts
2026-05-05 12:35 25.16827 114.71156 33104 ft 493 kts
2026-05-05 12:36 25.23512 114.72884 33109 ft 493 kts
2026-05-05 12:36 25.30193 114.74615 33125 ft 493 kts
2026-05-05 12:37 25.36842 114.76345 33107 ft 490 kts
2026-05-05 12:37 25.43475 114.78067 33103 ft 490 kts
2026-05-05 12:38 25.50123 114.79792 33101 ft 491 kts
2026-05-05 12:38 25.56723 114.81508 33119 ft 490 kts
2026-05-05 12:39 25.63344 114.83234 33100 ft 488 kts
2026-05-05 12:39 25.69954 114.84955 33098 ft 488 kts
2026-05-05 12:40 25.76562 114.86678 33100 ft 488 kts
2026-05-05 12:40 25.83176 114.88406 33129 ft 488 kts
2026-05-05 12:41 25.89705 114.90434 33101 ft 489 kts 11°
2026-05-05 12:41 25.96127 114.92976 33102 ft 491 kts 12°
2026-05-05 12:42 26.02538 114.95589 33102 ft 491 kts 12°
2026-05-05 12:42 26.08955 114.98164 33095 ft 490 kts 12°
2026-05-05 12:43 26.15375 115.00715 33097 ft 490 kts 12°
2026-05-05 12:43 26.21812 115.03270 33099 ft 492 kts 12°
2026-05-05 12:44 26.28271 115.05838 33092 ft 494 kts 12°
2026-05-05 12:44 26.34689 115.08401 33131 ft 493 kts 12°
2026-05-05 12:45 26.41157 115.10985 33091 ft 489 kts 12°
2026-05-05 12:45 26.47524 115.13526 33082 ft 489 kts 12°
2026-05-05 12:46 26.53940 115.16090 33092 ft 489 kts 12°
2026-05-05 12:46 26.60349 115.18656 33117 ft 490 kts 12°
2026-05-05 12:47 26.66741 115.21222 33077 ft 488 kts 12°
2026-05-05 12:47 26.73128 115.23794 33076 ft 488 kts 12°
2026-05-05 12:48 26.79504 115.26360 33074 ft 487 kts 12°
2026-05-05 12:48 26.85884 115.28926 33099 ft 488 kts 12°
2026-05-05 12:49 26.92256 115.31495 33072 ft 484 kts 12°
2026-05-05 12:49 26.98596 115.34052 33073 ft 485 kts 12°
2026-05-05 12:50 27.04917 115.36600 33065 ft 488 kts 12°
2026-05-05 12:50 27.11300 115.39181 33103 ft 487 kts 12°
2026-05-05 12:51 27.17648 115.41755 33069 ft 483 kts 12°
2026-05-05 12:51 27.23972 115.44318 33064 ft 483 kts 12°
2026-05-05 12:52 27.30301 115.46884 33057 ft 483 kts 12°
2026-05-05 12:52 27.36630 115.49455 33068 ft 483 kts 13°
2026-05-05 12:53 27.42785 115.51960 33071 ft 481 kts 13°
2026-05-05 12:53 27.49072 115.54529 33060 ft 481 kts 13°
2026-05-05 12:54 27.58513 115.58384 33067 ft 481 kts 13°
2026-05-05 12:55 27.64799 115.60952 33064 ft 479 kts 13°
2026-05-05 12:55 27.71049 115.63511 33053 ft 477 kts 13°
2026-05-05 12:56 27.77310 115.66072 33055 ft 481 kts 13°
2026-05-05 12:56 27.83532 115.68616 33060 ft 484 kts 13°
2026-05-05 12:57 27.89842 115.71209 33057 ft 481 kts 13°
2026-05-05 12:57 27.96176 115.73392 33052 ft 472 kts
2026-05-05 12:58 28.02617 115.74685 33045 ft 469 kts
2026-05-05 12:58 28.09067 115.75832 33045 ft 469 kts
2026-05-05 12:59 28.15512 115.77039 33060 ft 468 kts
2026-05-05 12:59 28.21914 115.78282 33049 ft 466 kts
2026-05-05 13:00 28.31405 115.80137 33049 ft 466 kts
2026-05-05 13:01 28.44163 115.82633 33049 ft 463 kts
2026-05-05 13:01 28.50505 115.83876 33047 ft 462 kts
2026-05-05 13:02 28.56844 115.85118 33047 ft 462 kts
2026-05-05 13:02 28.63036 115.86334 33047 ft 462 kts
2026-05-05 13:03 28.69408 115.87587 33043 ft 461 kts
2026-05-05 13:03 28.75726 115.88831 33044 ft 461 kts
2026-05-05 13:04 28.81991 115.90070 33046 ft 460 kts
2026-05-05 13:04 28.88299 115.91317 33047 ft 460 kts
2026-05-05 13:05 28.94490 115.93170 33048 ft 464 kts 15°
2026-05-05 13:05 29.00474 115.95993 33054 ft 467 kts 18°
2026-05-05 13:06 29.05499 115.98474 33042 ft 471 kts 17°
2026-05-05 13:06 29.11529 116.01385 33044 ft 470 kts 17°
2026-05-05 13:07 29.17547 116.04241 33048 ft 467 kts 17°
2026-05-05 13:07 29.23535 116.07105 33045 ft 466 kts 19°
2026-05-05 13:08 29.29500 116.10028 33040 ft 466 kts 17°
2026-05-05 13:08 29.35496 116.12823 33039 ft 465 kts 17°
2026-05-05 13:09 29.41457 116.15624 33050 ft 460 kts 17°
2026-05-05 13:09 29.47366 116.18428 33035 ft 459 kts 17°
2026-05-05 13:10 29.53265 116.21236 33035 ft 459 kts 17°
2026-05-05 13:10 29.59159 116.24047 33038 ft 459 kts 17°
2026-05-05 13:11 29.65049 116.26858 33050 ft 458 kts 18°
2026-05-05 13:11 29.70953 116.29683 33044 ft 461 kts 18°
2026-05-05 13:12 29.76834 116.32508 33038 ft 461 kts 18°
2026-05-05 13:12 29.82744 116.35346 33039 ft 460 kts 18°
2026-05-05 13:13 29.88638 116.38175 33042 ft 457 kts 18°
2026-05-05 13:13 29.94502 116.40992 33039 ft 456 kts 18°
2026-05-05 13:14 29.97436 116.42402 32909 ft 458 kts 18°